Location: Lecco
(45.8566°N, 9.3977°E)
Time: 07:24:31
(UTC+02:00)

Altair - Pass Details

Date: 18 August 2020
Orbit: 1501 x 1682 km, 47.2° (Epoch: 25 September)

Event Time Altitude Azimuth Distance (km) Brightness Sun altitude
Rises 05:49:03 0° 281° (W) 4,779 9.6 -6.8°
Reaches altitude 10° 05:52:11 10° 282° (WNW) 3,769 9.1 -6.3°
Maximum altitude 06:01:44 89° 13° (NNE) 1,535 7.6 -4.8°
Drops below altitude 10° 06:10:58 10° 104° (ESE) 3,658 10.4 -3.3°
Sets 06:13:58 0° 105° (ESE) 4,632 11.0 -2.8°
